[[{"header":{"parameterUnit":"m.s-1","parameterCategory":1,"la1":30.2991,"la2":30.254,"lo1":-89.0895,"lo2":-89.0444,"dy":0.0017,"dx":0.0017,"nx":28,"ny":28,"refTime":"2023-08-07T03:00:00:Z","depth":0,"parameterNumber":2,"parameterNumberName":"U-component_of_WINDS"},"data":[0,0,0,0,0,0,0,0,0,0,0,0,0,0,0,0,0,0,0,0,0,0,0,0,0,0,0,0,0,0,0,0,0,0,0,0,0,0,0,0,0,0,0,0,0,0,0,0,0,0,0,0,0,0,0,0,0,0,4.9859,4.986,0,5.0,5.0002,5.0003,4.9942,4.9938,4.9935,4.9931,5.0079,5.0086,5.0093,0,0,0,0,0,0,0,0,0,0,0,0,0,4.9536,4.9543,4.9858,4.986,4.9862,5.0,5.0002,5.0004,4.9942,4.9938,4.9934,4.993,5.0077,5.0085,5.0094,0,0,0,0,0,0,0,0,0,0,0,0,0,4.9677,4.9545,4.9858,4.9848,4.9848,4.9999,5.0002,5.0004,4.9943,4.9938,4.9933,4.9928,5.0074,5.0085,5.0095,5.0266,0,0,5.0128,5.0133,0,0,0,0,0,0,0,0,4.9669,4.9689,4.9848,4.9849,4.985,4.9948,4.9942,5.0092,4.9944,4.9907,4.9931,4.9925,5.004,5.0053,5.0091,5.0273,5.0279,5.0129,5.0135,5.014,5.0143,0,0,0,0,0,0,0,4.9659,4.9683,4.9914,4.985,4.9851,4.9837,4.9851,4.997,5.0001,4.991,4.9906,4.9923,5.0039,5.0081,5.0094,5.0281,5.0129,5.0138,5.0145,5.0149,5.0608,5.0613,0,0,0,0,0,0,4.9649,4.9675,4.991,4.9919,4.9745,4.9847,4.9863,4.9922,5.0,5.0006,4.9928,4.992,5.0065,5.0082,5.0099,5.0303,5.014,5.015,5.0156,5.0602,5.0609,5.0615,0,0,0,0,0,0,4.9643,4.9671,4.9904,4.9796,4.9824,4.9858,4.9925,4.9927,4.9968,5.0013,5.0018,4.9964,5.0062,5.0084,5.0224,5.0307,5.0155,5.0165,5.0596,5.0604,5.0612,5.0712,0,0,0,0,0,0,4.9634,4.9669,4.9734,4.9798,4.983,5.0027,4.993,4.9934,4.9987,4.9978,5.0049,5.0055,5.0059,5.0208,5.0235,5.0319,5.0173,5.0588,5.0599,5.061,5.0701,5.0723,5.0741,0,0,0,0,0,4.9623,4.9757,4.9737,4.9766,4.9912,5.0032,5.005,5.0051,4.9994,5.0059,5.0088,5.0053,5.0294,5.0223,5.0253,5.0341,5.0583,5.0596,5.0609,5.0692,5.0719,5.0741,0,0,0,0,0,0,4.9704,4.9765,4.9744,4.9903,4.9963,5.0021,5.0104,5.0079,5.0157,5.0146,5.0144,5.0161,5.0305,5.0338,5.0258,5.051,5.043,5.0449,5.0483,5.0509,5.0528,5.0517,5.0182,0,0,0,0,0,4.974,4.9831,4.988,5.0016,5.0047,5.007,5.0123,5.0118,5.018,5.0205,5.0243,5.0305,5.0394,5.0453,5.0538,5.0706,5.072,5.0781,5.0801,5.0817,5.0834,5.0924,5.0951,5.0658,5.0658,5.0658,0,0,4.9816,4.9861,4.9919,5.0034,5.0079,5.0174,5.0092,5.0196,5.0266,5.0221,5.0355,5.0385,5.0454,5.0609,5.0679,5.064,5.0918,5.0834,5.0846,5.0854,5.094,5.0968,5.0992,5.0667,5.0665,5.0664,0,0,5.0002,5.0046,5.0163,5.021,5.0279,5.0294,5.0322,5.0384,5.0402,5.0536,5.0504,5.0588,5.0742,5.0792,5.0838,5.1042,5.1013,5.107,5.1174,5.1262,5.1285,5.1305,5.1377,5.1403,5.1087,5.1087,5.1087,0,5.0088,5.0229,5.0227,5.0333,5.0384,5.0346,5.0465,5.051,5.0604,5.0641,5.0596,5.0788,5.0832,5.0996,5.1046,5.1085,5.1116,5.1062,5.1282,5.1302,5.1321,5.139,5.1417,5.1093,5.1093,5.1092,5.1091,0,5.0331,5.0429,5.0516,5.0606,5.0667,5.0779,5.0793,5.0856,5.0846,5.0865,5.1002,5.1053,5.1147,5.1186,5.1178,5.135,5.1323,5.1281,5.12,5.1356,5.142,5.1446,5.1103,5.11,5.1098,5.1097,0,0,5.0573,5.0659,5.0691,5.0731,5.0804,5.088,5.099,5.1081,5.1134,5.12,5.1292,5.1423,5.1383,5.1435,5.1432,5.1509,5.1667,5.1457,5.1458,5.1493,5.1858,5.1889,5.1919,5.1648,5.1653,5.1657,5.1851,0,5.0764,5.0956,5.0957,5.1134,5.1224,5.1189,5.1285,5.134,5.1361,5.1441,5.1465,5.1557,5.1498,5.1529,5.1604,5.1632,5.174,5.1618,5.1734,5.1738,5.1716,5.1953,5.1987,5.2168,5.1877,5.1881,5.1884,0,5.1013,5.1085,5.1271,5.133,5.1368,5.1454,5.1536,5.1613,5.1675,5.1685,5.1742,5.1728,5.184,5.1757,5.1911,5.1828,5.1876,5.1897,5.1904,5.1914,5.182,5.1969,5.2226,5.2252,5.1924,5.1921,5.1918,0,5.117,5.1314,5.1443,5.1478,5.155,5.1611,5.1644,5.1701,5.1755,5.1828,5.1862,5.1948,5.1994,5.2061,5.2069,5.2008,5.2225,5.2142,5.2236,5.2236,5.2282,5.2279,5.2549,5.2315,5.2315,5.2314,5.2313,0,5.1383,5.1498,5.1514,5.1594,5.1721,5.172,5.1847,5.1875,5.1925,5.201,5.1985,5.2065,5.2072,5.2155,5.2162,5.2289,5.231,5.2321,5.2322,5.2323,5.2321,5.2353,5.2341,5.2321,5.232,5.2318,5.2317,0,5.1579,5.1595,5.1733,5.1789,5.1806,5.1897,5.1945,5.2021,5.2039,5.2147,5.2172,5.2201,5.2296,5.2312,5.2425,5.243,5.258,5.2569,5.2559,5.2557,5.2649,5.264,5.2949,5.2989,5.2729,5.2732,5.2734,0,5.1713,5.18,5.1865,5.1919,5.1955,5.2043,5.2097,5.21,5.2158,5.2235,5.2302,5.2394,5.2468,5.2623,5.2655,5.2741,5.273,5.2832,5.2743,5.2741,5.273,5.2724,5.2733,5.2849,5.2852,5.2854,5.2856,0,5.195,5.1953,5.2032,5.2114,5.2179,5.2244,5.2305,5.2351,5.2362,5.2428,5.2524,5.2582,5.2696,5.2788,5.2873,5.2908,5.2884,5.2884,5.291,5.2912,5.2902,5.2907,5.2605,5.2877,5.2875,5.2873,5.2872,5.2871,5.2119,5.2194,5.2251,5.2339,5.2385,5.2442,5.2516,5.2543,5.2623,5.2715,5.2712,5.2818,5.2877,5.2989,5.3029,5.3112,5.3079,5.3117,5.3127,5.3136,5.3144,5.2889,5.3128,5.3127,5.3127,5.3126,5.3126,0,5.2353,5.2387,5.2469,5.2554,5.2623,5.2594,5.266,5.272,5.2813,5.287,5.2942,5.3053,5.3142,5.318,5.3268,5.3327,5.3318,5.335,5.3345,5.3353,5.3169,5.3137,5.3355,5.3355,5.3355,5.3355,5.3355,5.3355,5.2483,5.2608,5.2618,5.2765,5.2799,5.2902,5.2941,5.2994,5.3039,5.3163,5.3236,5.326,5.3309,5.34,5.348,5.3489,5.3522,5.3559,5.3563,5.339,5.3366,5.3344,5.3314,5.3566,5.3566,5.374,5.3741,5.3742]},{"header":{"parameterUnit":"m.s-1","parameterCategory":1,"la1":30.2991,"la2":30.254,"lo1":-89.0895,"lo2":-89.0444,"dy":0.0017,"dx":0.0017,"nx":28,"ny":28,"refTime":"2023-08-07T03:00:00:Z","depth":0,"parameterNumber":3,"parameterNumberName":"V-component_of_WINDS"},"data":[0,0,0,0,0,0,0,0,0,0,0,0,0,0,0,0,0,0,0,0,0,0,0,0,0,0,0,0,0,0,0,0,0,0,0,0,0,0,0,0,0,0,0,0,0,0,0,0,0,0,0,0,0,0,0,0,0,0,0.3308,0.3307,0,0.3266,0.3266,0.3265,0.3221,0.322,0.322,0.3219,0.3178,0.3177,0.3177,0,0,0,0,0,0,0,0,0,0,0,0,0,0.3349,0.3349,0.3308,0.3307,0.3307,0.3266,0.3265,0.3265,0.3221,0.322,0.3219,0.3219,0.3178,0.3177,0.3177,0,0,0,0,0,0,0,0,0,0,0,0,0,0.3322,0.3349,0.3308,0.328,0.3277,0.3266,0.3265,0.3265,0.3221,0.322,0.3219,0.3218,0.3178,0.3177,0.3176,0.319,0,0,0.3174,0.3174,0,0,0,0,0,0,0,0,0.3324,0.332,0.3284,0.3282,0.3278,0.3248,0.3265,0.324,0.3221,0.3242,0.3219,0.3218,0.3202,0.3199,0.3193,0.3188,0.3187,0.3174,0.3174,0.3173,0.3173,0,0,0,0,0,0,0,0.3326,0.3322,0.3291,0.3284,0.328,0.3269,0.3264,0.326,0.3228,0.324,0.3237,0.3233,0.32,0.3194,0.3192,0.3186,0.3174,0.3173,0.3173,0.3173,0.319,0.3191,0,0,0,0,0,0,0.3332,0.3324,0.3292,0.329,0.3299,0.3269,0.3264,0.3258,0.3228,0.3222,0.3234,0.3231,0.3196,0.3193,0.319,0.3205,0.3173,0.3172,0.3172,0.3189,0.319,0.3191,0,0,0,0,0,0,0.3333,0.3329,0.3294,0.3306,0.3301,0.327,0.3264,0.3258,0.3252,0.3223,0.3217,0.3234,0.3195,0.3191,0.3191,0.3203,0.3172,0.3171,0.3188,0.319,0.3191,0.3234,0,0,0,0,0,0,0.3334,0.333,0.3335,0.3306,0.33,0.3295,0.3265,0.3258,0.3251,0.3247,0.3221,0.3216,0.3194,0.3192,0.319,0.3201,0.3171,0.3187,0.3189,0.3191,0.3231,0.3236,0.3241,0,0,0,0,0,0.3336,0.3349,0.3335,0.3332,0.3306,0.3296,0.3292,0.3267,0.3252,0.3257,0.3238,0.3217,0.3201,0.3192,0.3189,0.3201,0.3186,0.3188,0.319,0.3229,0.3235,0.3241,0,0,0,0,0,0,0.338,0.3345,0.3329,0.3333,0.3318,0.3288,0.3294,0.3274,0.3263,0.326,0.3229,0.3223,0.3226,0.3213,0.3204,0.3212,0.3191,0.3192,0.3221,0.3227,0.3232,0.3235,0.317,0,0,0,0,0,0.339,0.3385,0.3354,0.3361,0.3354,0.3325,0.332,0.3302,0.3284,0.3278,0.3258,0.3243,0.3234,0.323,0.322,0.3228,0.3222,0.3235,0.324,0.3244,0.3246,0.3249,0.3254,0.3198,0.3198,0.3198,0,0,0.3411,0.3391,0.339,0.3369,0.3355,0.3351,0.332,0.3317,0.3313,0.3277,0.3275,0.3261,0.3241,0.3245,0.3245,0.3234,0.326,0.3246,0.325,0.325,0.3252,0.3257,0.3262,0.32,0.32,0.3199,0,0,0.3448,0.3432,0.3436,0.3422,0.3401,0.3381,0.3382,0.3355,0.3344,0.3341,0.3314,0.331,0.3296,0.3283,0.3275,0.3305,0.3286,0.3303,0.3329,0.3333,0.3337,0.3341,0.3352,0.3357,0.3305,0.3305,0.3305,0,0.3477,0.3469,0.344,0.3438,0.343,0.3397,0.3401,0.3389,0.3366,0.3361,0.3348,0.333,0.3314,0.3314,0.3322,0.3316,0.3316,0.3307,0.3339,0.3342,0.3345,0.3356,0.336,0.3308,0.3307,0.3307,0.3307,0,0.3506,0.3501,0.3507,0.3485,0.3477,0.3478,0.345,0.3445,0.3427,0.3409,0.3407,0.3387,0.3373,0.3371,0.3354,0.3369,0.3362,0.3345,0.3323,0.3354,0.3363,0.3367,0.3311,0.331,0.3309,0.3309,0,0,0.3571,0.3532,0.3535,0.3524,0.3498,0.3493,0.3493,0.3478,0.3475,0.346,0.3459,0.3448,0.3431,0.3422,0.3402,0.3405,0.3431,0.3387,0.3386,0.3396,0.3447,0.3461,0.3466,0.3417,0.3418,0.3418,0.3449,0,0.3603,0.36,0.3573,0.3578,0.3573,0.354,0.354,0.3523,0.3506,0.35,0.3481,0.3473,0.3452,0.3446,0.3447,0.3428,0.3441,0.3425,0.3416,0.3417,0.3423,0.3471,0.3486,0.3515,0.3452,0.3453,0.3453,0,0.3641,0.3627,0.3631,0.3604,0.3601,0.3601,0.3586,0.3579,0.356,0.3548,0.3537,0.3515,0.3512,0.349,0.3487,0.3476,0.3471,0.3461,0.3461,0.346,0.3437,0.3472,0.3524,0.3529,0.3458,0.3458,0.3458,0,0.3688,0.3671,0.3671,0.3663,0.3631,0.3632,0.3619,0.3599,0.3592,0.3578,0.3574,0.356,0.3553,0.3543,0.3518,0.3504,0.3517,0.3493,0.3507,0.3508,0.3512,0.3512,0.3565,0.3507,0.3507,0.3507,0.3507,0,0.3727,0.3731,0.3692,0.3692,0.3695,0.3665,0.3669,0.3652,0.3635,0.3631,0.3602,0.3599,0.3566,0.3559,0.3539,0.3539,0.3536,0.3526,0.3521,0.3529,0.3531,0.3526,0.3524,0.3508,0.3508,0.3508,0.3508,0,0.3781,0.3755,0.3753,0.3723,0.3715,0.3719,0.3694,0.3692,0.3673,0.3669,0.3666,0.3636,0.3627,0.36,0.3585,0.3571,0.3577,0.3567,0.3584,0.3581,0.3596,0.3595,0.3648,0.3654,0.3592,0.3593,0.3593,0,0.3809,0.3811,0.3781,0.3776,0.3764,0.3757,0.375,0.3719,0.3713,0.3691,0.3693,0.3681,0.367,0.3657,0.3634,0.3621,0.3611,0.363,0.3609,0.3617,0.3612,0.3612,0.3613,0.3635,0.3636,0.3637,0.3637,0,0.386,0.3847,0.3837,0.3823,0.3815,0.3802,0.3787,0.3785,0.3752,0.3746,0.3736,0.3727,0.371,0.3699,0.3683,0.367,0.3648,0.3644,0.3647,0.3656,0.3666,0.3661,0.3597,0.3643,0.3643,0.3642,0.3642,0.3642,0.3902,0.3902,0.3881,0.3871,0.3857,0.3844,0.3842,0.3822,0.3813,0.3797,0.3779,0.3771,0.3751,0.3727,0.3715,0.3709,0.3697,0.3701,0.3702,0.3703,0.3707,0.3666,0.3706,0.3705,0.3705,0.3705,0.3705,0,0.3952,0.3937,0.3928,0.3909,0.3901,0.388,0.3863,0.3858,0.3851,0.3834,0.3824,0.3812,0.3801,0.3777,0.3764,0.3763,0.3753,0.3761,0.3761,0.3758,0.3718,0.3718,0.3769,0.3769,0.3769,0.3769,0.3769,0.3769,0.3978,0.3977,0.3961,0.3953,0.3938,0.393,0.3922,0.3909,0.3896,0.3884,0.3875,0.3858,0.3839,0.3823,0.3812,0.3805,0.3802,0.3813,0.3803,0.3767,0.3761,0.3755,0.3754,0.3813,0.3813,0.3844,0.3844,0.3844]}]]